Date,TemperatureHighF,TemperatureAvgF,TemperatureLowF,DewpointHighF,DewpointAvgF,DewpointLowF,HumidityHigh,HumidityAvg,HumidityLow,PressureMaxIn,PressureMinIn,WindSpeedMaxMPH,WindSpeedAvgMPH,GustSpeedMaxMPH,PrecipitationSumIn
2013-9-1,78,68,61,-100,-100,-100,0,0,100,0.00,40.00,0,-999,0,0.00
2013-9-2,70,65,61,-100,-100,-100,0,0,100,0.00,40.00,0,-999,0,0.00
2013-9-3,69,62,58,-100,-100,-100,0,0,100,0.00,40.00,0,-999,0,0.00
2013-9-4,68,59,54,-100,-100,-100,0,0,100,0.00,40.00,0,-999,0,0.00
2013-9-5,58,50,38,-100,-100,-100,0,0,100,0.00,40.00,0,-999,0,0.00
2013-9-6,63,47,33,-100,-100,-100,0,0,100,0.00,40.00,0,-999,0,0.00
2013-9-7,70,54,40,-100,-100,-100,0,0,100,0.00,40.00,0,-999,0,0.00
2013-9-8,58,51,36,-100,-100,-100,0,0,100,0.00,40.00,0,-999,0,0.00
2013-9-9,64,46,31,-100,-100,-100,0,0,100,0.00,40.00,0,-999,0,0.00
2013-9-10,65,55,45,-100,-100,-100,0,0,100,0.00,40.00,0,-999,0,0.00
2013-9-11,85,70,59,-100,-100,-100,0,0,100,0.00,40.00,0,-999,0,0.01
2013-9-12,70,65,62,-100,-100,-100,0,0,100,0.00,40.00,0,-999,0,0.01
2013-9-13,63,57,52,-100,-100,-100,0,0,100,0.00,40.00,0,-999,0,0.01
2013-9-14,52,50,48,-100,-100,-100,0,0,100,0.00,40.00,0,-999,0,0.00
2013-9-15,62,49,39,-100,-100,-100,0,0,100,0.00,40.00,0,-999,0,0.00
2013-9-16,52,46,34,-100,-100,-100,0,0,100,0.00,40.00,0,-999,0,0.00
2013-9-17,58,43,30,-100,-100,-100,0,0,100,0.00,40.00,0,-999,0,0.00
2013-9-18,41,36,35,-100,-100,-100,0,0,100,0.00,40.00,0,-999,0,0.00
2013-9-19,72,52,39,-100,-100,-100,0,0,100,0.00,40.00,0,-999,0,0.00
2013-9-20,76,56,41,-100,-100,-100,0,0,100,0.00,40.00,0,-999,0,0.00
2013-9-21,74,62,44,-100,-100,-100,0,0,100,0.00,40.00,0,-999,0,0.00
2013-9-22,64,54,45,-100,-100,-100,0,0,100,0.00,40.00,0,-999,0,0.01
2013-9-23,46,43,40,-100,-100,-100,0,0,100,0.00,40.00,0,-999,0,0.01
2013-9-24,48,44,40,-100,-100,-100,0,0,100,0.00,40.00,0,-999,0,0.00
2013-9-25,52,45,37,-100,-100,-100,0,0,100,0.00,40.00,0,-999,0,0.00
2013-9-26,55,48,40,-100,-100,-100,0,0,100,0.00,40.00,0,-999,0,0.00
2013-9-27,66,54,44,-100,-100,-100,0,0,100,0.00,40.00,0,-999,0,0.00
2013-9-28,68,52,42,-100,-100,-100,0,0,100,0.00,40.00,0,-999,0,0.00
2013-9-29,70,52,41,-100,-100,-100,0,0,100,0.00,40.00,0,-999,0,0.00
2013-9-30,70,52,41,-100,-100,-100,0,0,100,0.00,40.00,0,-999,0,0.00